Location: Mahannah Oil Field
(37.4664°N, 96.6003°W)
Time: 16:03:36
(UTC+00:00)

Vanguard 2 Rocket - Pass Details

Date: 21 June 2021
Orbit: 554 x 3325 km, 32.9° (Epoch: 24 July)

Event Time Altitude Azimuth Distance (km) Brightness Sun altitude
Rises 03:15:16 0° 261° (W) 7,312 12.0 -14.1°
Reaches altitude 10° 03:20:19 10° 260° (W) 6,244 11.6 -14.8°
Maximum altitude 03:39:44 75° 180° (S) 2,674 9.0 -17.3°
Drops below altitude 10° 03:51:56 10° 98° (E) 4,158 9.8 -18.9°
Enters shadow 03:52:18 - 97° (E) 4,252 9.9 -18.9°
